This is the latest recevied weather packets stored in our database for station/object BV5AB-13. If no packets are shown the sender has not sent any weather packets the latest 10 day(s).
| Time | Temp. | Humidity | Pressure | Rain* | Wind** | Luminosity | Snow |
|---|---|---|---|---|---|---|---|
| 1777465023 | 25° C | 86% | 1003.2 hPa | 0 mm | - | - | - |
| 1777464424 | 24.44° C | 89% | 1003 hPa | 0 mm | - | - | - |
| 1777463824 | 24.44° C | 92% | 1002.8 hPa | 0 mm | - | - | - |
| 1777463224 | 24.44° C | 91% | 1002.6 hPa | 0 mm | - | - | - |
| 1777462623 | 24.44° C | 91% | 1002.5 hPa | 0 mm | - | - | - |
| 1777462024 | 24.44° C | 88% | 1002.4 hPa | 0 mm | - | - | - |
| 1777461424 | 24.44° C | 89% | 1002.3 hPa | 0 mm | - | - | - |
| 1777460824 | 24.44° C | 89% | 1002.1 hPa | 0 mm | - | - | - |
| 1777460223 | 24.44° C | 90% | 1002 hPa | 0 mm | - | - | - |
| 1777459624 | 24.44° C | 87% | 1001.8 hPa | 0 mm | - | - | - |
| 1777459023 | 24.44° C | 87% | 1001.8 hPa | 0 mm | - | - | - |
| 1777458424 | 25° C | 88% | 1001.6 hPa | 0 mm | - | - | - |
| 1777457887 | 25° C | 87% | 1001.5 hPa | 0 mm | - | - | - |
| 1777457224 | 25° C | 88% | 1001.2 hPa | 0 mm | - | - | - |
| 1777456623 | 25° C | 87% | 1001 hPa | 0 mm | - | - | - |
| 1777456024 | 25° C | 87% | 1000.8 hPa | 0 mm | - | - | - |
| 1777455423 | 24.44° C | 89% | 1000.6 hPa | 0 mm | - | - | - |
| 1777454824 | 24.44° C | 91% | 1000.3 hPa | 0 mm | - | - | - |
| 1777454224 | 24.44° C | 92% | 1000.1 hPa | 0 mm | - | - | - |
| 1777453623 | 24.44° C | 92% | 1000.2 hPa | 0 mm | - | - | - |
| 1777453023 | 24.44° C | 92% | 1000.3 hPa | 0 mm | - | - | - |
| 1777452423 | 24.44° C | 91% | 1000.3 hPa | 0 mm | - | - | - |
| 1777451823 | 24.44° C | 90% | 1000.3 hPa | 0 mm | - | - | - |
| 1777451223 | 24.44° C | 91% | 1000.3 hPa | 0 mm | - | - | - |
| 1777450023 | 24.44° C | 90% | 1000.3 hPa | 1.52 mm | - | - | - |
* Rain latest hour (hover to see other rain measurements)
** Current wind speed in m/s (hover to see current wind gust speed)